Regional Weather Roundup
Issued by NWS

Home | Current Version | Previous Version | Text Only | Print | Product List | Glossary Off
Versions: 1 2 3 4 5 6 7 8 9 10 11 12 13 14 15 16 17 18 19 20 21 22 23 24 25 26 27 28 29 30 31 32 33 34 35 36 37 38 39 40 41 42 43 44 45 46 47 48 49 50

000
ASUS45 KSLC 031710
RWRUT
UTAH REGIONAL WEATHER ROUNDUP
NATIONAL WEATHER SERVICE SALT LAKE CITY UT
1100 AM MDT MON AUG 03 2015

UTZ001>011-023>025-031800-

NORTHERN UTAH

CITY           SKY/WX    TMP DP  RH WIND       PRES   REMARKS
BRIGHAM CITY   CLOUDY    63  58  86 SE5       30.13S
HILL AFB       LGT RAIN  61  61 100 N6        30.14R
LOGAN          LGT RAIN  63  58  83 S13       30.12R
OGDEN          LGT RAIN  62  60  93 CALM      30.12S FOG
PROVO AIRPORT  LGT RAIN  63  57  82 VRB5      30.14R
SALT LAKE CITY LGT RAIN  63  60  90 N12       30.11R
VERNAL         CLOUDY    67  59  75 CALM      30.10F
WENDOVER       CLOUDY    70  57  64 NE9       30.09R
HEBER CITY     RAIN      59  55  88 SW8       30.13R
WEST JORDAN    CLOUDY    61  61 100 N3        30.13R

$$

UTZ012>022-026-027-031800-

SOUTHERN/CENTRAL UTAH

CITY           SKY/WX    TMP DP  RH WIND       PRES   REMARKS
BLANDING       PTSUNNY   70  58  65 E3        30.29S
BRYCE CANYON   SUNNY     68  49  50 SE5       30.30S
CEDAR CITY     SUNNY     75  47  36 VRB5      30.16F
DELTA          PTSUNNY   67  54  62 CALM      30.15S
HANKSVILLE     SUNNY     73  59  60 CALM      30.12S
MILFORD        SUNNY     76  47  35 N8        30.12F
MOAB/CYNLANDS  CLOUDY    74  61  63 S10       30.08F
PRICE          LGT RAIN  62  57  83 NE3       30.15R
ST GEORGE      CLOUDY    84  52  32 W3        29.99F
KANAB          SUNNY     81  55  41 SE3       30.18S

$$

REGIONAL REPORTS     COLORADO/ARIZONA

CITY           SKY/WX    TMP DP  RH WIND       PRES   REMARKS
CRAIG, CO      LGT RAIN  66  55  67 E6        30.19F
GRAND JUNCTION MOSUNNY   77  54  44 S10       30.10S
RIFLE          PTSUNNY   69  59  70 VRB3      30.17F
MONTROSE       SUNNY     74  54  49 E5        30.20S
CORTEZ         SUNNY     72  56  57 CALM      30.22S
PAGE, AZ       SUNNY     77  59  53 N5        30.09F
GRAND CANYON   SUNNY     78  44  29 VRB7G16   30.26S
KINGMAN        SUNNY     94  42  16 SW13      30.01S HX  90
FLAGSTAFF      MOSUNNY   74  43  32 VRB6      30.31R

$$

REGIONAL REPORTS    NEVADA/IDAHO/WYOMING

CITY           SKY/WX    TMP DP  RH WIND       PRES   REMARKS
LAS VEGAS, NV  SUNNY     96  39  13 E5        29.85S HX  91
ELY            SUNNY     76  41  28 VRB3      30.17F
ELKO           PTSUNNY   79  46  31 CALM      30.08F
POCATELLO, ID  SUNNY     78  50  37 S15       30.03S
BURLEY         CLOUDY    76  50  40 W7        30.01R
EVANSTON, WY   CLOUDY    56  53  90 NW7       30.19F
ROCK SPRINGS   LGT RAIN  58  54  86 SE10      30.19F
KEMMERER       LGT RAIN N/A N/A N/A N12       30.21F

$$



USA.gov is the U.S. government's official web portal to all federal, state and local government web resources and services.